This is the latest recevied weather packets stored in our database for station/object NO9B. If no packets are shown the sender has not sent any weather packets the latest 10 day(s).
| Time | Temp. | Humidity | Pressure | Rain* | Wind** | Luminosity | Snow |
|---|---|---|---|---|---|---|---|
| 1788086414 | 20.56° C | 93% | 1014.6 hPa | 6.1 mm | - | 0 W/m² | - |
| 1788086109 | 20.56° C | 92% | 1014.6 hPa | 7.11 mm | - | 0 W/m² | - |
| 1788085808 | 20.56° C | 92% | 1014.9 hPa | 4.83 mm | - | 0 W/m² | - |
| 1788085508 | 20.56° C | 91% | 1014.8 hPa | 4.32 mm | - | 0 W/m² | - |
| 1788085204 | 20.56° C | 91% | 1014.6 hPa | 4.83 mm | - | 0 W/m² | - |
| 1788084899 | 20.56° C | 91% | 1014.1 hPa | 0 mm | - | 0 W/m² | - |
| 1788084599 | 20.56° C | 92% | 1014.3 hPa | 0 mm | - | 0 W/m² | - |
| 1788084298 | 21.11° C | 92% | 1014.4 hPa | 0.51 mm | - | 0 W/m² | - |
| 1788083997 | 21.11° C | 92% | 1014.6 hPa | 4.83 mm | - | 0 W/m² | - |
| 1788083693 | 21.11° C | 92% | 1014.5 hPa | 11.94 mm | - | 0 W/m² | - |
| 1788083388 | 21.11° C | 92% | 1014.5 hPa | 8.89 mm | - | 0 W/m² | - |
| 1788083084 | 21.11° C | 90% | 1014.6 hPa | 8.38 mm | - | 0 W/m² | - |
| 1788082780 | 21.11° C | 89% | 1014.5 hPa | 3.56 mm | - | 0 W/m² | - |
| 1788082475 | 21.11° C | 89% | 1014.6 hPa | 0 mm | - | 0 W/m² | - |
| 1788082171 | 21.11° C | 88% | 1014.3 hPa | 1.27 mm | - | 0 W/m² | - |
| 1788081866 | 21.67° C | 87% | 1014.7 hPa | 1.27 mm | - | 0 W/m² | - |
| 1788081563 | 21.67° C | 86% | 1014.6 hPa | 0.51 mm | - | 0 W/m² | - |
| 1788081263 | 21.67° C | 85% | 1014.6 hPa | 0 mm | - | 0 W/m² | - |
| 1788080961 | 21.67° C | 87% | 1014.8 hPa | 0.51 mm | - | 0 W/m² | - |
| 1788080657 | 21.67° C | 86% | 1015.1 hPa | 0.51 mm | - | 0 W/m² | - |
| 1788080352 | 21.67° C | 86% | 1015.1 hPa | 0 mm | - | 0 W/m² | - |
| 1788080046 | 21.11° C | 87% | 1015.3 hPa | 0 mm | - | 0 W/m² | - |
| 1788079742 | 21.11° C | 89% | 1015.1 hPa | 0 mm | - | 0 W/m² | - |
| 1788079437 | 21.11° C | 89% | 1015 hPa | 0 mm | - | 0 W/m² | - |
| 1788079133 | 20.56° C | 89% | 1014.9 hPa | 0 mm | - | 0 W/m² | - |
* Rain latest hour (hover to see other rain measurements)
** Current wind speed in m/s (hover to see current wind gust speed)